Regional Weather Roundup
Issued by NWS

Home | Current Version | Previous Version | Graphics & Text | Print | Product List | Glossary Off
Versions: 1 2 3 4 5 6 7 8 9 10 11 12 13 14 15 16 17 18 19 20 21 22 23 24 25 26 27 28 29 30 31 32 33 34 35 36 37 38 39 40 41 42 43 44 45 46 47 48 49 50

000
ASUS43 KMKX 271400
RWRWI

WISCONSIN REGIONAL WEATHER ROUNDUP
NATIONAL WEATHER SERVICE MILWAUKEE/SULLIVAN WI
900 AM CDT MON APR 27 2015

NOTE: "FAIR" INDICATES FEW OR NO CLOUDS BELOW 12,000 FEET WITH NO
SIGNIFICANT WEATHER AND/OR OBSTRUCTIONS TO VISIBILITY.

WIZ001-002-006>008-014>016-023>028-271500-
NORTHWEST WISCONSIN

CITY           SKY/WX    TMP DP  RH WIND       PRES   REMARKS
SUPERIOR ARPT  SUNNY     40  30  68 CALM      30.24S
ASHLAND        SUNNY     47  30  51 NE5       30.23S
HAYWARD        SUNNY     47  31  53 CALM      30.22S
SIREN          SUNNY     46  29  52 CALM      30.23S
CUMBERLAND     SUNNY     45  30  57 CALM      30.22R
RICE LAKE      SUNNY     45  31  57 N5        30.23R
CHETEK         SUNNY     45  31  58 N7        30.22R
LADYSMITH      SUNNY     47  31  53 N6        30.22R
EAU CLAIRE     NOT AVBL
MENOMONIE      SUNNY     47  28  47 N3        30.22S
NEW RICHMOND   SUNNY     46  30  54 N3        30.22S
OSCEOLA        SUNNY     44  32  61 CALM      30.25S
$$

WIZ003>005-009-010-017-018-271500-
NORTH CENTRAL WISCONSIN

CITY           SKY/WX    TMP DP  RH WIND       PRES   REMARKS
MANITOWISH WTR SUNNY     44  29  55 N9        30.18F
ARBOR VITAE    SUNNY     45  30  55 N9        30.17F
WOODRUFF       SUNNY     45  30  55 N9        30.17F
RHINELANDER    SUNNY     46  28  49 N12       30.17S
EAGLE RIVER    SUNNY     44  27  51 N9        30.17R
LAND O LAKES   SUNNY     44  29  56 N10       30.18S
PHILLIPS       SUNNY     46  29  51 N8        30.18F
TOMAHAWK       SUNNY     44  29  55 CALM      30.18S
MEDFORD        SUNNY     46  30  54 N10       30.17S
MERRILL        SUNNY     45  31  56 N8        30.17S
$$

WIZ029-030-035-036-043>047-271500-
CENTRAL WISCONSIN

CITY           SKY/WX    TMP DP  RH WIND       PRES   REMARKS
WAUSAU         SUNNY     47  29  49 N9        30.15S
MOSINEE        SUNNY     46  30  53 N8        30.16S
MARSHFIELD     SUNNY     50  30  46 NE13G18   30.17S
STEVENS POINT  SUNNY     45  29  53 N8        30.16S
WAUPACA        SUNNY     49  31  50 N7        30.16R
WAUTOMA        NOT AVBL
WISC RAPIDS    SUNNY     51  29  42 N12       30.17S
CAMP DOUGLAS   NOT AVBL
$$

WIZ011>013-019>022-031-037>040-048>050-271500-
NORTHEAST WISCONSIN

CITY           SKY/WX    TMP DP  RH WIND       PRES   REMARKS
ANTIGO         SUNNY     44  31  60 N7        30.15S
SHAWANO        SUNNY     49  32  51 N6        30.15R
OCONTO         SUNNY     46  32  57 NE10G16   30.13S
STURGEON BAY   SUNNY     43  30  61 N17G23    30.15R
GREEN BAY      SUNNY     51  34  52 N8        30.13R
MANITOWOC      NOT AVBL
APPLETON       MOSUNNY   46  30  53 N10       30.14R
CLINTONVILLE   SUNNY     46  32  57 N9        30.14S
OSHKOSH        SUNNY     48  31  51 N10       30.13S
$$

WIZ032>034-041-042-053>061-271500-
SOUTHWEST WISCONSIN

CITY           SKY/WX    TMP DP  RH WIND       PRES   REMARKS
LA CROSSE      SUNNY     49  32  52 W5        30.21R
SPARTA         SUNNY     45  31  58 W3        30.20R
VIROQUA        SUNNY     47  32  56 NW5       30.19R
BOSCOBEL       SUNNY     48  35  60 SW5       30.20R
PRAIRIE DU CHI SUNNY     45  33  63 CALM      30.21R
PLATTEVILLE    SUNNY     47  32  56 CALM      30.18R
$$

WIZ056-057-062-063-064-067-068-271500-
SOUTH CENTRAL WISCONSIN

CITY           SKY/WX    TMP DP  RH WIND       PRES   REMARKS
REEDSBURG      SUNNY     46  33  58 NW3       30.15F
BARABOO/DELLS  SUNNY     47  30  52 N8        30.15S
LONE ROCK      NOT AVBL
MINERAL POINT  SUNNY     46  34  61 NW3       30.18R
MADISON        MOSUNNY   50  32  50 N8        30.15R
MIDDLETON      SUNNY     49  31  49 N10       30.16R
WATERTOWN      SUNNY     46  35  65 N9        30.13R
MONROE         SUNNY     46  32  57 N8        30.15R
JANESVILLE     SUNNY     48  30  49 N8        30.14R
$$

WIZ051-052-058>065-066-070>072-271500-
SOUTHEAST WISCONSIN

CITY           SKY/WX    TMP DP  RH WIND       PRES   REMARKS
MILWAUKEE      MOSUNNY   48  33  56 N14G23    30.13R
WAUKESHA       SUNNY     46  30  53 NW7       30.13R
MILWAUKEE/TIMM SUNNY     48  32  53 N7        30.12R
RACINE         SUNNY     48  33  56 N16G22    30.13R
BURLINGTON     SUNNY     45  32  61 N6        30.12R
KENOSHA        SUNNY     49  34  56 N13       30.12R
FOND DU LAC    SUNNY     49  32  52 N12       30.13R
SHEBOYGAN      SUNNY     49  34  56 N10       30.11R
WEST BEND      SUNNY     46  32  57 N10       30.11R
JUNEAU         SUNNY     45  32  61 N8        30.14R
$$

LSZ147-162-271500-
LAKE SUPERIOR

STATION/POSITION TIME  TEMP    WIND        PRES    WAVE
                       AIR SEA DIR/SP/G            HT/PER
                 (UTC) (F)     (DEG/KT/KT) (MB)    (FT/S)
W MID LAKE BUOY  1250   36 34  320/  4/  4 1025.0R   0
DEVILS ISLAND    1300   36     240/  7/  8 1024.7R
PORT WING        1340   42     330/  3/  4 1024.0R
SAXON HARBOR     1340   42        CALM     1023.7R
$$

LMZ867-665-643>646-271500-
LAKE MICHIGAN

STATION/POSITION TIME  TEMP    WIND        PRES    WAVE
                       AIR SEA DIR/SP/G            HT/PER
                 (UTC) (F)     (DEG/KT/KT) (MB)    (FT/S)
CHAMBERS ISLAND  1300   42     320/ 10/ 12 1020.3R
NORTHPORT PIER   1300   39     330/ 10/ 12 1020.0R
SISTER BAY       1302   42     360/ 11/ 12   N/A
KEWAUNEE LAKESHO 1300   44     350/  9/ 11 1018.7S
SHEBOYGAN LAKESH 1300   44     350/ 16/ 18 1020.0R
PORT WASHINGTON  1300   48     350/  6/ 11 1020.3R
MILWAUKEE LAKESH 1300   46     360/ 14/ 19   N/A
KENOSHA   LAKESH 1300   45     360/ 17/ 21 1019.0R
$$

TC  - TEMPERATURE IN CELSIUS
VSB - VISIBILITY IN STATUTE MILES
WCI - WIND CHILL INDEX
HX  - HEAT INDEX




USA.gov is the U.S. government's official web portal to all federal, state and local government web resources and services.